Time,TemperatureF,DewpointF,PressureIn,WindDirection,WindDirectionDegrees,WindSpeedMPH,WindSpeedGustMPH,Humidity,HourlyPrecipIn,Conditions,Clouds,dailyrainin,SoftwareType,DateUTC
2013-05-25 00:02:00,37.9,33.5,30.19,North,0,0.0,0.0,84,0.00,,,0.00,WeatherCatV1.10B1784,2013-05-24 23:02:00,
2013-05-25 00:12:00,37.8,33.3,30.19,North,0,0.0,0.0,84,0.00,,,0.00,WeatherCatV1.10B1784,2013-05-24 23:12:00,
2013-05-25 00:22:00,37.2,32.8,30.20,North,0,0.0,0.0,84,0.00,,,0.00,WeatherCatV1.10B1784,2013-05-24 23:22:00,
2013-05-25 00:32:00,36.7,32.5,30.19,North,0,0.0,0.0,85,0.00,,,0.00,WeatherCatV1.10B1784,2013-05-24 23:32:00,
2013-05-25 00:42:00,36.1,32.0,30.19,North,0,0.0,0.0,85,0.00,,,0.00,WeatherCatV1.10B1784,2013-05-24 23:42:00,
2013-05-25 00:52:00,35.6,31.5,30.20,North,0,0.0,0.0,85,0.00,,,0.00,WeatherCatV1.10B1784,2013-05-24 23:52:00,
2013-05-25 01:02:00,35.4,31.6,30.20,North,0,0.0,0.0,86,0.00,,,0.00,WeatherCatV1.10B1784,2013-05-25 00:02:00,
2013-05-25 01:12:00,34.9,31.0,30.20,North,0,0.0,0.0,86,0.00,,,0.00,WeatherCatV1.10B1784,2013-05-25 00:12:00,
2013-05-25 01:22:00,34.9,31.0,30.20,North,0,0.0,0.0,86,0.00,,,0.00,WeatherCatV1.10B1784,2013-05-25 00:22:00,
2013-05-25 01:32:00,34.5,31.0,30.20,North,0,0.0,0.0,87,0.00,,,0.00,WeatherCatV1.10B1784,2013-05-25 00:32:00,
2013-05-25 01:42:00,34.3,30.8,30.20,North,0,0.0,0.0,87,0.00,,,0.00,WeatherCatV1.10B1784,2013-05-25 00:42:00,
2013-05-25 01:52:00,34.0,30.4,30.20,North,0,0.0,0.0,87,0.00,,,0.00,WeatherCatV1.10B1784,2013-05-25 00:52:00,
2013-05-25 02:02:00,33.6,30.1,30.20,North,0,0.0,0.0,87,0.00,,,0.00,WeatherCatV1.10B1784,2013-05-25 01:02:00,
2013-05-25 02:12:00,33.3,30.0,30.20,North,0,0.0,0.0,88,0.00,,,0.00,WeatherCatV1.10B1784,2013-05-25 01:12:00,
2013-05-25 02:22:00,32.9,29.7,30.20,North,0,0.0,0.0,88,0.00,,,0.00,WeatherCatV1.10B1784,2013-05-25 01:22:00,
2013-05-25 02:32:00,32.7,29.8,30.20,North,0,0.0,0.0,89,0.00,,,0.00,WeatherCatV1.10B1784,2013-05-25 01:32:00,
2013-05-25 02:42:00,32.4,29.5,30.20,North,0,0.0,0.0,89,0.00,,,0.00,WeatherCatV1.10B1784,2013-05-25 01:42:00,
2013-05-25 02:52:00,32.2,29.4,30.20,North,0,0.0,0.0,89,0.00,,,0.00,WeatherCatV1.10B1784,2013-05-25 01:52:00,
2013-05-25 03:02:00,31.8,29.0,30.20,North,0,0.0,0.0,89,0.00,,,0.00,WeatherCatV1.10B1784,2013-05-25 02:02:00,
2013-05-25 03:12:00,31.6,28.8,30.20,North,0,0.0,0.0,89,0.00,,,0.00,WeatherCatV1.10B1784,2013-05-25 02:12:00,
2013-05-25 03:22:00,31.3,28.5,30.19,North,0,0.0,0.0,89,0.00,,,0.00,WeatherCatV1.10B1784,2013-05-25 02:22:00,
2013-05-25 03:32:00,31.3,28.5,30.20,North,0,0.0,0.0,89,0.00,,,0.00,WeatherCatV1.10B1784,2013-05-25 02:32:00,
2013-05-25 03:42:00,30.9,28.1,30.20,North,0,0.0,0.0,89,0.00,,,0.00,WeatherCatV1.10B1784,2013-05-25 02:42:00,
2013-05-25 03:52:00,30.7,27.9,30.20,North,0,0.0,0.0,89,0.00,,,0.00,WeatherCatV1.10B1784,2013-05-25 02:52:00,
2013-05-25 04:02:00,30.7,28.2,30.19,North,0,0.0,0.0,90,0.00,,,0.00,WeatherCatV1.10B1784,2013-05-25 03:02:00,
2013-05-25 04:12:00,30.4,27.9,30.19,North,0,0.0,0.0,90,0.00,,,0.00,WeatherCatV1.10B1784,2013-05-25 03:12:00,
2013-05-25 04:22:00,30.0,27.5,30.20,North,0,0.0,0.0,90,0.00,,,0.00,WeatherCatV1.10B1784,2013-05-25 03:22:00,
2013-05-25 04:32:00,30.0,27.5,30.20,North,0,0.0,0.0,90,0.00,,,0.00,WeatherCatV1.10B1784,2013-05-25 03:32:00,
2013-05-25 04:42:00,30.0,27.5,30.19,North,0,0.0,0.0,90,0.00,,,0.00,WeatherCatV1.10B1784,2013-05-25 03:42:00,
2013-05-25 04:52:00,29.8,27.3,30.19,North,0,0.0,0.0,90,0.00,,,0.00,WeatherCatV1.10B1784,2013-05-25 03:52:00,
2013-05-25 05:02:00,29.7,27.1,30.20,North,0,0.0,0.0,90,0.00,,,0.00,WeatherCatV1.10B1784,2013-05-25 04:02:00,
2013-05-25 05:12:00,29.7,27.4,30.20,North,0,0.0,0.0,91,0.00,,,0.00,WeatherCatV1.10B1784,2013-05-25 04:12:00,
2013-05-25 05:22:00,29.5,27.2,30.19,North,0,0.0,0.0,91,0.00,,,0.00,WeatherCatV1.10B1784,2013-05-25 04:22:00,
2013-05-25 05:32:00,29.7,27.4,30.20,North,0,0.0,0.0,91,0.00,,,0.00,WeatherCatV1.10B1784,2013-05-25 04:32:00,
2013-05-25 05:42:00,30.6,28.3,30.20,North,0,0.0,0.0,91,0.00,,,0.00,WeatherCatV1.10B1784,2013-05-25 04:42:00,
2013-05-25 05:52:00,35.4,33.5,30.20,North,0,0.0,0.0,93,0.00,,,0.00,WeatherCatV1.10B1784,2013-05-25 04:52:00,
2013-05-25 06:02:00,39.0,37.1,30.20,North,0,0.0,0.0,93,0.00,,,0.00,WeatherCatV1.10B1784,2013-05-25 05:02:00,
2013-05-25 06:12:00,38.5,35.8,30.20,North,0,0.0,0.0,90,0.00,,,0.00,WeatherCatV1.10B1784,2013-05-25 05:12:00,
2013-05-25 06:22:00,36.9,33.9,30.20,North,0,0.0,0.0,89,0.00,,,0.00,WeatherCatV1.10B1784,2013-05-25 05:22:00,
2013-05-25 06:32:00,36.0,33.0,30.19,North,0,0.0,0.0,89,0.00,,,0.00,WeatherCatV1.10B1784,2013-05-25 05:32:00,
2013-05-25 06:42:00,35.4,32.1,30.19,North,0,0.0,0.0,88,0.00,,,0.00,WeatherCatV1.10B1784,2013-05-25 05:42:00,
2013-05-25 06:52:00,35.4,32.1,30.19,North,0,0.0,0.0,88,0.00,,,0.00,WeatherCatV1.10B1784,2013-05-25 05:52:00,
2013-05-25 07:02:00,36.3,33.0,30.19,North,0,0.0,0.0,88,0.00,,,0.00,WeatherCatV1.10B1784,2013-05-25 06:02:00,
2013-05-25 07:22:00,37.4,34.1,30.19,North,0,0.0,0.0,88,0.00,,,0.00,WeatherCatV1.10B1784,2013-05-25 06:22:00,
2013-05-25 07:32:00,38.1,34.8,30.18,North,0,0.0,0.0,88,0.00,,,0.00,WeatherCatV1.10B1784,2013-05-25 06:32:00,
2013-05-25 07:42:00,39.4,35.8,30.19,North,0,0.0,0.0,87,0.00,,,0.00,WeatherCatV1.10B1784,2013-05-25 06:42:00,
2013-05-25 07:52:00,40.3,36.7,30.18,North,0,0.0,0.0,87,0.00,,,0.00,WeatherCatV1.10B1784,2013-05-25 06:52:00,
2013-05-25 08:02:00,41.7,37.8,30.18,North,0,0.0,2.2,86,0.00,,,0.00,WeatherCatV1.10B1784,2013-05-25 07:02:00,
2013-05-25 08:12:00,43.0,38.8,30.18,North,0,0.0,0.0,85,0.00,,,0.00,WeatherCatV1.10B1784,2013-05-25 07:12:00,
2013-05-25 08:22:00,44.2,39.1,30.17,NNE,22,2.0,2.7,82,0.00,,,0.00,WeatherCatV1.10B1784,2013-05-25 07:22:00,
2013-05-25 08:32:00,45.3,39.7,30.17,North,0,0.0,2.5,81,0.00,,,0.00,WeatherCatV1.10B1784,2013-05-25 07:32:00,
2013-05-25 08:42:00,46.2,40.1,30.17,NNE,22,1.6,2.5,79,0.00,,,0.00,WeatherCatV1.10B1784,2013-05-25 07:42:00,
2013-05-25 08:52:00,47.1,40.3,30.17,NNE,22,0.0,2.7,77,0.00,,,0.00,WeatherCatV1.10B1784,2013-05-25 07:52:00,
2013-05-25 09:02:00,48.0,41.1,30.17,NE,45,0.0,3.6,77,0.00,,,0.00,WeatherCatV1.10B1784,2013-05-25 08:02:00,
2013-05-25 09:12:00,48.7,40.7,30.17,SSE,157,1.3,1.3,74,0.00,,,0.00,WeatherCatV1.10B1784,2013-05-25 08:12:00,
2013-05-25 09:22:00,49.3,40.6,30.17,East,90,0.0,2.0,72,0.00,,,0.00,WeatherCatV1.10B1784,2013-05-25 08:22:00,
2013-05-25 09:32:00,49.8,40.8,30.17,NE,45,0.0,3.8,71,0.00,,,0.00,WeatherCatV1.10B1784,2013-05-25 08:32:00,
2013-05-25 09:42:00,50.2,40.8,30.17,SE,135,2.5,2.5,70,0.00,,,0.00,WeatherCatV1.10B1784,2013-05-25 08:42:00,
2013-05-25 09:52:00,50.5,40.4,30.17,NW,315,0.0,1.6,68,0.00,,,0.00,WeatherCatV1.10B1784,2013-05-25 08:52:00,
2013-05-25 10:02:00,51.1,40.9,30.17,North,0,2.5,2.7,68,0.00,,,0.00,WeatherCatV1.10B1784,2013-05-25 09:02:00,
2013-05-25 10:12:00,51.8,40.4,30.17,SSE,157,2.9,5.4,66,0.00,,,0.00,WeatherCatV1.10B1784,2013-05-25 09:12:00,
2013-05-25 10:22:00,52.2,39.5,30.17,SSE,157,2.2,2.2,62,0.00,,,0.00,WeatherCatV1.10B1784,2013-05-25 09:22:00,
2013-05-25 10:32:00,52.5,39.8,30.17,SE,135,0.0,2.2,62,0.00,,,0.00,WeatherCatV1.10B1784,2013-05-25 09:32:00,
2013-05-25 10:42:00,53.2,40.1,30.17,West,270,0.7,4.7,61,0.00,,,0.00,WeatherCatV1.10B1784,2013-05-25 09:42:00,
2013-05-25 10:52:00,53.4,40.3,30.16,South,180,1.6,3.4,61,0.00,,,0.00,WeatherCatV1.10B1784,2013-05-25 09:52:00,
2013-05-25 11:02:00,54.0,40.6,30.17,West,270,0.0,2.2,60,0.00,,,0.00,WeatherCatV1.10B1784,2013-05-25 10:02:00,
2013-05-25 11:13:00,54.3,40.7,30.16,SE,135,0.0,1.8,60,0.00,,,0.00,WeatherCatV1.10B1784,2013-05-25 10:13:00,
2013-05-25 11:22:00,54.7,41.1,30.17,WSW,247,1.8,3.1,60,0.00,,,0.00,WeatherCatV1.10B1784,2013-05-25 10:22:00,
2013-05-25 11:32:00,55.0,40.9,30.16,North,0,0.0,2.5,59,0.00,,,0.00,WeatherCatV1.10B1784,2013-05-25 10:32:00,
2013-05-25 11:42:00,55.6,41.4,30.16,SE,135,2.2,2.2,59,0.00,,,0.00,WeatherCatV1.10B1784,2013-05-25 10:42:00,
2013-05-25 11:52:00,55.9,40.9,30.16,SE,135,0.0,2.0,57,0.00,,,0.00,WeatherCatV1.10B1784,2013-05-25 10:52:00,
2013-05-25 12:02:00,56.1,40.6,30.15,North,0,0.0,4.9,56,0.00,,,0.00,WeatherCatV1.10B1784,2013-05-25 11:02:00,
2013-05-25 12:12:00,56.5,40.7,30.14,SSW,202,2.0,2.0,56,0.00,,,0.00,WeatherCatV1.10B1784,2013-05-25 11:12:00,
2013-05-25 12:22:00,56.8,41.8,30.14,SE,135,0.0,2.9,57,0.00,,,0.00,WeatherCatV1.10B1784,2013-05-25 11:22:00,
2013-05-25 12:32:00,57.9,41.4,30.14,SSE,157,0.0,2.9,54,0.00,,,0.00,WeatherCatV1.10B1784,2013-05-25 11:32:00,
2013-05-25 12:42:00,58.3,41.2,30.14,North,0,3.4,3.4,53,0.00,,,0.00,WeatherCatV1.10B1784,2013-05-25 11:42:00,
2013-05-25 12:52:00,58.6,39.6,30.14,ESE,112,1.8,4.0,49,0.00,,,0.00,WeatherCatV1.10B1784,2013-05-25 11:52:00,
2013-05-25 13:02:00,58.6,40.1,30.14,East,90,0.0,2.2,50,0.00,,,0.00,WeatherCatV1.10B1784,2013-05-25 12:02:00,
2013-05-25 13:12:00,59.0,40.5,30.14,NE,45,0.0,2.2,50,0.00,,,0.00,WeatherCatV1.10B1784,2013-05-25 12:12:00,
2013-05-25 13:22:00,59.7,40.5,30.14,SSE,157,2.0,2.9,49,0.00,,,0.00,WeatherCatV1.10B1784,2013-05-25 12:22:00,
2013-05-25 13:32:00,60.3,41.8,30.13,North,0,0.0,3.1,50,0.00,,,0.00,WeatherCatV1.10B1784,2013-05-25 12:32:00,
2013-05-25 13:42:00,60.6,41.9,30.13,NW,315,1.6,2.2,50,0.00,,,0.00,WeatherCatV1.10B1784,2013-05-25 12:42:00,
2013-05-25 13:52:00,61.5,42.7,30.13,NNE,22,2.7,3.6,50,0.00,,,0.00,WeatherCatV1.10B1784,2013-05-25 12:52:00,
2013-05-25 14:02:00,64.0,44.4,30.13,SE,135,1.6,5.4,49,0.00,,,0.00,WeatherCatV1.10B1784,2013-05-25 13:02:00,
2013-05-25 14:12:00,65.8,43.8,30.13,ENE,67,1.6,5.8,45,0.00,,,0.00,WeatherCatV1.10B1784,2013-05-25 13:12:00,
2013-05-25 14:22:00,65.8,44.0,30.12,SE,135,2.0,2.5,45,0.00,,,0.00,WeatherCatV1.10B1784,2013-05-25 13:22:00,
2013-05-25 14:32:00,66.0,44.0,30.13,West,270,0.0,0.0,45,0.00,,,0.00,WeatherCatV1.10B1784,2013-05-25 13:32:00,
2013-05-25 14:42:00,66.6,43.4,30.12,NNE,22,1.8,6.0,43,0.00,,,0.00,WeatherCatV1.10B1784,2013-05-25 13:42:00,
2013-05-25 14:52:00,66.0,43.4,30.11,SE,135,0.0,3.6,44,0.00,,,0.00,WeatherCatV1.10B1784,2013-05-25 13:52:00,
2013-05-25 15:02:00,65.7,43.0,30.11,North,0,0.0,2.9,44,0.00,,,0.00,WeatherCatV1.10B1784,2013-05-25 14:02:00,
2013-05-25 15:12:00,64.6,43.2,30.11,WNW,292,0.0,3.1,46,0.00,,,0.00,WeatherCatV1.10B1784,2013-05-25 14:12:00,
2013-05-25 15:22:00,66.2,43.0,30.11,SSE,157,0.0,6.3,43,0.00,,,0.00,WeatherCatV1.10B1784,2013-05-25 14:22:00,
2013-05-25 15:32:00,66.9,43.6,30.11,East,90,0.0,1.8,43,0.00,,,0.00,WeatherCatV1.10B1784,2013-05-25 14:32:00,
2013-05-25 15:42:00,67.8,43.7,30.11,West,270,0.9,0.9,42,0.00,,,0.00,WeatherCatV1.10B1784,2013-05-25 14:42:00,
2013-05-25 15:52:00,68.4,44.3,30.10,NNE,22,0.0,2.2,42,0.00,,,0.00,WeatherCatV1.10B1784,2013-05-25 14:52:00,
2013-05-25 16:02:00,67.6,44.3,30.11,NW,315,0.0,2.2,43,0.00,,,0.00,WeatherCatV1.10B1784,2013-05-25 15:02:00,
2013-05-25 16:12:00,68.9,44.2,30.11,East,90,1.1,1.1,41,0.00,,,0.00,WeatherCatV1.10B1784,2013-05-25 15:12:00,
2013-05-25 16:22:00,68.7,44.6,30.11,NNE,22,1.6,6.7,42,0.00,,,0.00,WeatherCatV1.10B1784,2013-05-25 15:22:00,
2013-05-25 16:32:00,68.0,44.0,30.11,East,90,0.0,8.9,42,0.00,,,0.00,WeatherCatV1.10B1784,2013-05-25 15:32:00,
2013-05-25 16:42:00,68.9,45.4,30.11,WNW,292,0.0,8.1,43,0.00,,,0.00,WeatherCatV1.10B1784,2013-05-25 15:42:00,
2013-05-25 16:52:00,68.2,44.7,30.10,East,90,1.1,2.2,43,0.00,,,0.00,WeatherCatV1.10B1784,2013-05-25 15:52:00,
2013-05-25 17:02:00,66.7,44.6,30.10,NE,45,6.0,9.2,45,0.00,,,0.00,WeatherCatV1.10B1784,2013-05-25 16:02:00,
2013-05-25 17:12:00,65.8,44.4,30.10,NNE,22,2.9,6.5,46,0.00,,,0.00,WeatherCatV1.10B1784,2013-05-25 16:12:00,
2013-05-25 17:22:00,65.5,44.0,30.10,North,0,1.8,5.1,46,0.00,,,0.00,WeatherCatV1.10B1784,2013-05-25 16:22:00,
2013-05-25 17:32:00,66.0,44.0,30.10,ENE,67,0.0,5.8,45,0.00,,,0.00,WeatherCatV1.10B1784,2013-05-25 16:32:00,
2013-05-25 17:42:00,65.5,43.5,30.10,North,0,4.7,6.5,45,0.00,,,0.00,WeatherCatV1.10B1784,2013-05-25 16:42:00,
2013-05-25 17:52:00,65.1,43.1,30.10,South,180,0.0,5.4,45,0.00,,,0.00,WeatherCatV1.10B1784,2013-05-25 16:52:00,
2013-05-25 18:02:00,66.0,43.4,30.10,NNE,22,0.0,3.8,44,0.00,,,0.00,WeatherCatV1.10B1784,2013-05-25 17:02:00,
2013-05-25 18:12:00,65.8,43.8,30.10,NE,45,0.0,2.5,45,0.00,,,0.00,WeatherCatV1.10B1784,2013-05-25 17:12:00,
2013-05-25 18:22:00,65.3,42.7,30.09,NNE,22,0.0,8.3,44,0.00,,,0.00,WeatherCatV1.10B1784,2013-05-25 17:22:00,
2013-05-25 18:32:00,65.8,43.2,30.10,NNE,22,3.1,3.1,44,0.00,,,0.00,WeatherCatV1.10B1784,2013-05-25 17:32:00,
2013-05-25 18:42:00,65.1,42.5,30.10,NE,45,3.1,6.0,44,0.00,,,0.00,WeatherCatV1.10B1784,2013-05-25 17:42:00,
2013-05-25 18:52:00,64.2,42.3,30.10,East,90,0.0,3.6,45,0.00,,,0.00,WeatherCatV1.10B1784,2013-05-25 17:52:00,
2013-05-25 19:02:00,63.7,41.8,30.09,ENE,67,0.0,1.3,45,0.00,,,0.00,WeatherCatV1.10B1784,2013-05-25 18:02:00,
2013-05-25 19:12:00,63.5,41.1,30.09,ENE,67,1.3,5.8,44,0.00,,,0.00,WeatherCatV1.10B1784,2013-05-25 18:12:00,
2013-05-25 19:22:00,62.4,40.1,30.09,SSE,157,0.0,6.9,44,0.00,,,0.00,WeatherCatV1.10B1784,2013-05-25 18:22:00,
2013-05-25 19:32:00,61.3,39.7,30.09,NE,45,0.0,2.2,45,0.00,,,0.00,WeatherCatV1.10B1784,2013-05-25 18:32:00,
2013-05-25 19:42:00,60.1,39.7,30.10,North,0,0.0,0.0,47,0.00,,,0.00,WeatherCatV1.10B1784,2013-05-25 18:42:00,
2013-05-25 19:52:00,59.4,39.6,30.10,West,270,0.9,2.0,48,0.00,,,0.00,WeatherCatV1.10B1784,2013-05-25 18:52:00,
2013-05-25 20:02:00,58.6,39.6,30.10,North,0,2.2,2.2,49,0.00,,,0.00,WeatherCatV1.10B1784,2013-05-25 19:02:00,
2013-05-25 20:12:00,58.1,39.7,30.10,NNE,22,0.0,1.6,50,0.00,,,0.00,WeatherCatV1.10B1784,2013-05-25 19:12:00,
2013-05-25 20:22:00,57.4,39.0,30.10,WNW,292,0.0,3.6,50,0.00,,,0.00,WeatherCatV1.10B1784,2013-05-25 19:22:00,
2013-05-25 20:32:00,56.8,38.5,30.10,ESE,112,0.0,1.3,50,0.00,,,0.00,WeatherCatV1.10B1784,2013-05-25 19:32:00,
2013-05-25 20:42:00,56.1,38.2,30.11,SE,135,0.0,0.0,51,0.00,,,0.00,WeatherCatV1.10B1784,2013-05-25 19:42:00,
2013-05-25 20:52:00,55.6,37.7,30.10,NNW,337,0.0,2.0,51,0.00,,,0.00,WeatherCatV1.10B1784,2013-05-25 19:52:00,
2013-05-25 21:02:00,55.0,38.1,30.11,North,0,0.0,0.0,53,0.00,,,0.00,WeatherCatV1.10B1784,2013-05-25 20:02:00,
2013-05-25 21:12:00,54.3,37.9,30.11,NNE,22,0.0,0.0,54,0.00,,,0.00,WeatherCatV1.10B1784,2013-05-25 20:12:00,
2013-05-25 21:22:00,53.4,38.0,30.11,NNE,22,0.0,0.0,56,0.00,,,0.00,WeatherCatV1.10B1784,2013-05-25 20:22:00,
2013-05-25 21:32:00,52.5,38.1,30.11,NNE,22,0.0,0.0,58,0.00,,,0.00,WeatherCatV1.10B1784,2013-05-25 20:32:00,
2013-05-25 21:42:00,51.8,37.8,30.11,NNE,22,0.0,0.0,59,0.00,,,0.00,WeatherCatV1.10B1784,2013-05-25 20:42:00,
2013-05-25 21:52:00,50.7,37.7,30.11,NNE,22,0.0,0.0,61,0.00,,,0.00,WeatherCatV1.10B1784,2013-05-25 20:52:00,
2013-05-25 22:02:00,49.8,38.1,30.11,NNE,22,0.0,0.0,64,0.00,,,0.00,WeatherCatV1.10B1784,2013-05-25 21:02:00,
2013-05-25 22:12:00,48.7,37.1,30.11,NNE,22,0.0,0.0,64,0.00,,,0.00,WeatherCatV1.10B1784,2013-05-25 21:12:00,
2013-05-25 22:22:00,47.8,36.6,30.11,NNE,22,0.0,0.0,65,0.00,,,0.00,WeatherCatV1.10B1784,2013-05-25 21:22:00,
2013-05-25 22:32:00,47.1,37.1,30.12,NNE,22,0.0,0.0,68,0.00,,,0.00,WeatherCatV1.10B1784,2013-05-25 21:32:00,
2013-05-25 22:42:00,46.6,37.0,30.12,NNE,22,0.0,0.0,69,0.00,,,0.00,WeatherCatV1.10B1784,2013-05-25 21:42:00,
2013-05-25 22:52:00,45.9,36.7,30.12,NNE,22,0.0,0.0,70,0.00,,,0.00,WeatherCatV1.10B1784,2013-05-25 21:52:00,
2013-05-25 23:02:00,45.1,36.3,30.12,NNE,22,0.0,0.0,71,0.00,,,0.00,WeatherCatV1.10B1784,2013-05-25 22:02:00,
2013-05-25 23:12:00,45.0,36.5,30.12,NNE,22,0.0,0.0,72,0.00,,,0.00,WeatherCatV1.10B1784,2013-05-25 22:12:00,
2013-05-25 23:22:00,44.6,36.1,30.12,NNE,22,0.0,0.0,72,0.00,,,0.00,WeatherCatV1.10B1784,2013-05-25 22:22:00,
2013-05-25 23:32:00,44.2,36.1,30.12,NNE,22,0.0,0.0,73,0.00,,,0.00,WeatherCatV1.10B1784,2013-05-25 22:32:00,
2013-05-25 23:42:00,43.7,35.9,30.12,NNE,22,0.0,0.0,74,0.00,,,0.00,WeatherCatV1.10B1784,2013-05-25 22:42:00,
2013-05-25 23:52:00,43.2,35.8,30.12,NNE,22,0.0,0.0,75,0.00,,,0.00,WeatherCatV1.10B1784,2013-05-25 22:52:00,